カタログに戻る

GLOBALSTAR M069

運用中通信LEO
NORAD 31573·PAYLOAD·🇺🇸 United States

打ち上げ May 29, 2007 から Baikonur Cosmodrome

Loading…

次のパス (今後24時間)

TLE

最新Source: Space-Track

元期: Sep 14, 2026, 07:34 UTC

1 31573U 07020C   26257.31548356 -.00000065  00000-0  25626-3 0  9991
2 31573  52.0064 359.8564 0001377 345.9193  46.8223 12.23474681889716

AllMySatでGLOBALSTAR M069をリアルタイム追跡

Download on the App Store